DW8097 Weather Reports


time (UTC)temp
C
wind
direction
speed
KPH
gust
KPH
rain 1hr
cm
rain 24hr
cm
rain mn
cm
humidity
%
barometer
mb
20260506044531 5 349 4.8 12.9 0.00 0.00 0.00 52 1011.7
20260506043027 6 351 8.0 14.5 0.00 0.00 0.00 51 1011.7
20260506041523 6 317 8.0 12.9 0.00 0.00 0.00 51 1011.4
20260506040029 6 360 8.0 16.1 0.00 0.00 0.00 49 1011.3
20260506034510 7 5 6.4 19.3 0.00 0.00 0.00 47 1011.2
20260506033003 7 360 6.4 14.5 0.00 0.00 0.00 45 1011.0
20260506031558 7 323 3.2 9.7 0.00 0.00 0.00 44 1011.0
20260506030049 7 314 3.2 8.0 0.00 0.00 0.00 43 1011.0
20260506024548 8 324 3.2 6.4 0.00 0.00 0.00 43 1010.8
20260506023054 8 335 3.2 8.0 0.00 0.00 0.00 41 1010.5
20260506021547 8 283 1.6 8.0 0.00 0.00 0.00 42 1010.3
20260506020040 8 309 3.2 8.0 0.00 0.00 0.00 41 1010.2
20260506014539 8 330 3.2 8.0 0.00 0.00 0.00 40 1010.0
20260506013034 8 292 8.0 12.9 0.00 0.00 0.00 39 1009.8
20260506011535 9 326 9.7 16.1 0.00 0.00 0.00 40 1009.7
20260506010045 9 360 6.4 14.5 0.00 0.00 0.00 40 1009.7
20260506004634 9 346 9.7 17.7 0.00 0.00 0.00 39 1009.5
20260506003030 9 327 4.8 16.1 0.00 0.00 0.00 39 1009.4
20260506001529 10 348 8.0 17.7 0.00 0.00 0.00 38 1009.3
20260506000010 10 355 9.7 16.1 0.00 0.00 0.00 37 1009.2
20260505234521 10 295 8.0 20.9 0.00 0.00 0.00 37 1009.1
20260505233007 10 313 11.3 20.9 0.00 0.00 0.00 36 1009.2
20260505231503 10 321 11.3 19.3 0.00 0.00 0.00 36 1009.0
20260505230008 10 306 8.0 17.7 0.00 0.00 0.00 35 1009.2
20260505224503 10 355 12.9 20.9 0.00 0.00 0.00 36 1009.3
20260505223059 10 273 9.7 17.7 0.00 0.00 0.00 37 1009.2
20260505221559 10 266 9.7 25.7 0.00 0.00 0.00 37 1009.1
20260505220057 10 336 14.5 25.7 0.00 0.00 0.00 35 1009.2
20260505214623 11 265 9.7 20.9 0.00 0.00 0.00 35 1009.1
20260505213024 10 296 6.4 24.1 0.00 0.00 0.00 36 1009.2
20260505211522 10 272 9.7 22.5 0.00 0.00 0.00 34 1009.3
20260505210020 10 300 11.3 24.1 0.00 0.00 0.00 33 1009.3
20260505204520 10 305 12.9 24.1 0.00 0.00 0.00 34 1009.2
20260505203031 11 308 11.3 24.1 0.00 0.00 0.00 32 1009.3
20260505201524 10 267 11.3 20.9 0.00 0.00 0.00 33 1009.3
20260505200014 10 24 14.5 24.1 0.00 0.00 0.00 33 1009.3
20260505194515 11 360 12.9 20.9 0.00 0.00 0.00 32 1009.4
20260505193012 10 342 9.7 17.7 0.00 0.00 0.00 32 1009.4
20260505191511 12 336 11.3 25.7 0.00 0.00 0.00 29 1009.4
20260505190038 11 277 8.0 19.3 0.00 0.00 0.00 29 1009.6
20260505184538 10 355 4.8 20.9 0.00 0.00 0.00 32 1009.8
20260505183036 10 328 11.3 25.7 0.00 0.00 0.00 30 1009.7
20260505181533 10 331 8.0 22.5 0.00 0.00 0.00 31 1009.6
20260505180055 10 9 16.1 30.6 0.00 0.00 0.00 30 1009.4
20260505174547 10 319 3.2 20.9 0.00 0.00 0.00 31 1009.6
20260505173030 9 336 14.5 27.4 0.00 0.00 0.00 31 1009.6
20260505171524 9 318 8.0 32.2 0.00 0.00 0.00 31 1009.6
20260505170017 10 323 12.9 27.4 0.00 0.00 0.00 31 1009.6
20260505164516 10 355 11.3 16.1 0.00 0.00 0.00 31 1009.6
20260505163019 8 351 9.7 27.4 0.00 0.00 0.00 30 1009.7
20260505161506 10 290 8.0 22.5 0.00 0.00 0.00 33 1009.7
20260505153059 8 338 12.9 22.5 0.00 0.00 0.00 32 1009.6
20260505151602 8 355 17.7 27.4 0.00 0.00 0.00 35 1009.3
20260505124545 6 307 8.0 12.9 0.00 0.00 0.00 49 1008.4
20260505123040 5 309 4.8 11.3 0.00 0.00 0.00 52 1008.4
20260505121537 5 310 4.8 11.3 0.00 0.00 0.00 53 1008.1
20260505120038 5 295 1.6 6.4 0.00 0.00 0.00 55 1007.9
20260505114532 4 317 6.4 11.3 0.00 0.00 0.00 56 1007.6
20260505113029 4 301 3.2 8.0 0.00 0.00 0.00 57 1007.1
20260505111525 3 281 3.2 8.0 0.00 0.00 0.00 59 1006.9
20260505101548 4 317 3.2 9.7 0.00 0.00 0.00 59 1006.3
20260505100051 4 316 3.2 14.5 0.00 0.00 0.00 59 1006.2
20260505094514 5 281 1.6 4.8 0.00 0.00 0.00 57 1006.1
20260505093022 5 313 3.2 8.0 0.00 0.00 0.00 57 1006.0
20260505091546 5 268 3.2 8.0 0.00 0.00 0.00 56 1005.8
20260505090040 5 327 1.6 8.0 0.00 0.00 0.00 56 1005.5
20260505084635 5 274 3.2 6.4 0.00 0.00 0.00 56 1005.3
20260505083033 5 313 1.6 6.4 0.00 0.00 0.00 56 1005.1
20260505081535 5 294 0.0 4.8 0.00 0.00 0.00 56 1004.8
20260505080028 5 294 1.6 8.0 0.00 0.00 0.00 58 1004.8
20260505074525 5 279 1.6 6.4 0.00 0.00 0.00 57 1004.7
20260505073023 5 248 1.6 4.8 0.00 0.00 0.00 56 1004.7
20260505071521 5 303 3.2 6.4 0.00 0.00 0.00 55 1004.7
20260505070019 6 279 6.4 11.3 0.00 0.00 0.00 53 1004.7
20260505064515 6 282 6.4 11.3 0.00 0.00 0.00 52 1004.7
20260505063017 6 258 4.8 11.3 0.00 0.00 0.00 52 1004.8
20260505061512 6 273 4.8 11.3 0.00 0.00 0.00 51 1004.8
20260505060010 6 305 4.8 9.7 0.00 0.00 0.00 50 1004.7
20260505054537 7 263 4.8 11.3 0.00 0.00 0.00 50 1004.8
20260505053042 7 263 3.2 9.7 0.00 0.00 0.00 49 1004.8